#timestamp,LO_Frequency,Hit,StdDev 
1566126015.4,286047005.8,N
1566126035.2,286047003.6,N
1566126055.1,286047001.8,N
1566126056.0,286047001.8,N
1566126075.8,286047003.8,N
1566126095.7,286047005.8,N
1566126115.5,286047005.3,N
1566126135.3,286047006.0,N
1566126155.2,286047005.9,N
1566126175.0,286047004.5,N
1566126175.9,286047004.5,N
1566126195.7,286047005.6,N
1566126215.6,286047006.0,N
1566126235.4,286047003.0,N
1566126255.3,286047003.1,N
1566126275.1,286047003.7,N
1566126276.0,286047003.7,N
1566126295.8,286047003.6,N
1566126315.7,286047003.4,N
1566126335.5,286047004.0,N
1566126355.4,286047003.4,N
1566126375.2,286047003.2,N
1566126395.0,286047003.0,N
1566126395.9,286047003.0,N
1566126415.8,286047004.2,N
1566126435.6,286047003.2,N
1566126455.4,286047004.3,Y
1566126475.3,286046998.2,P
1566126495.1,286046998.8,N
1566126515.9,286046998.1,N
1566126535.7,286046998.2,N
1566126555.5,286046998.1,N
1566126575.4,286046998.6,N
1566126595.2,286046998.2,N
1566126615.0,286046999.4,N
1566126616.0,286046999.4,N
1566126635.8,286046998.1,N
1566126655.6,286047001.5,N
1566126675.5,286047007.0,Y
1566126695.3,286047010.5,P
1566126715.1,286047011.8,N
1566126735.9,286047011.8,N
1566126755.7,286047013.3,N
1566126775.6,286047012.6,N
1566126795.4,286047013.0,N
1566126815.2,286047013.5,N
1566126835.1,286047013.2,N
1566126836.0,286047013.2,Y
1566126855.8,286047002.1,P
1566126875.7,286046999.8,N
1566126895.5,286046999.8,N
1566126915.3,286046999.7,N
1566126935.2,286046999.7,N
1566126955.0,286047000.3,N
1566126955.9,286047000.3,N
1566126975.8,286047001.0,N
1566126995.6,286047001.1,N
1566127015.5,286047000.5,N
1566127035.3,286047000.5,N
1566127055.1,286047001.2,N
1566127075.9,286046999.1,N
1566127095.7,286046997.0,N
1566127115.5,286046997.5,N
1566127135.4,286046997.1,N
1566127155.2,286046997.0,N
1566127175.1,286046996.7,N
1566127176.0,286046996.7,N
1566127195.8,286046998.7,N
1566127215.6,286047004.0,N
1566127235.5,286047005.0,N
1566127255.3,286047004.5,N
1566127275.2,286047003.5,N
1566127295.9,286047004.2,N
1566127315.7,286047002.2,N
1566127335.6,286046999.8,N
1566127355.4,286047001.4,N
1566127375.2,286047001.8,N
1566127395.1,286047002.2,N
1566127396.0,286047002.2,N
1566127415.8,286046999.7,N
1566127435.7,286047002.2,N
1566127455.5,286047011.9,Y
1566127475.3,286046998.8,P
1566127495.2,286046996.6,P
1566127515.0,286046996.8,N
1566127515.9,286046996.8,N
1566127535.8,286046997.3,N
1566127555.6,286046996.4,N
1566127575.4,286046993.6,Y
1566127595.3,286046995.1,P
1566127615.1,286046997.8,N
1566127635.9,286046998.4,N
1566127655.7,286046999.4,N
1566127675.5,286046997.5,N
1566127695.4,286046997.2,N
1566127715.2,286046997.2,N
1566127735.0,286046997.3,N
1566127735.9,286046997.3,N
1566127755.8,286046999.3,N
1566127775.6,286047001.9,N
1566127795.5,286047003.8,N
1566127815.3,286047001.3,N
1566127835.1,286047001.9,N
1566127855.9,286047000.4,N
1566127875.7,286046999.0,N
1566127895.5,286046997.1,N
1566127915.4,286046995.1,N
1566127935.2,286046993.9,N
1566127955.1,286046994.3,N
1566127956.0,286046994.3,N
1566127975.8,286046994.3,N
1566127995.7,286046991.9,Y
1566128015.5,286046996.4,P
1566128035.3,286046994.8,P
1566128055.2,286046993.1,P
1566128075.0,286046990.8,Y
1566128075.9,286046990.8,P
1566128095.8,286046995.3,N
1566128115.6,286046995.2,N
1566128135.4,286046995.2,N
1566128155.3,286046993.7,Y
1566128175.1,286046998.9,P
1566128195.8,286046999.3,N
1566128215.7,286046999.2,N
1566128235.5,286046996.6,N
1566128255.4,286046996.8,N
1566128275.2,286046998.0,N
1566128295.0,286046995.0,Y
1566128295.9,286046995.0,P
1566128315.8,286046999.1,N
1566128335.6,286046996.5,N
1566128355.5,286046996.9,N
1566128375.3,286046996.9,N
1566128395.1,286046997.3,N
1566128415.9,286046996.7,N
1566128435.7,286046996.7,Y
1566128455.6,286047001.1,P
1566128475.4,286047000.6,N
1566128495.2,286046998.2,N
1566128515.1,286047000.9,N
1566128516.0,286047000.9,N
1566128535.8,286047000.7,N
1566128555.6,286046998.8,N
1566128575.5,286046999.5,N
1566128595.3,286046997.7,N
1566128615.2,286046997.4,N
1566128635.9,286046995.0,Y
1566128655.7,286046995.2,P
1566128675.6,286046997.7,N
1566128695.4,286046997.9,N
1566128715.3,286046996.8,N
1566128735.1,286046995.0,Y
1566128755.8,286047000.6,P
1566128775.7,286046998.2,N
1566128795.5,286046999.4,N
1566128815.4,286046997.3,N
1566128835.2,286046995.6,Y
1566128855.0,286046996.8,P
1566128855.9,286046996.8,P
1566128875.8,286046995.3,P
1566128895.6,286046995.4,Y
1566128915.5,286046998.9,P
1566128935.3,286046998.9,N
1566128955.1,286047000.5,N
1566128975.9,286046999.8,N
1566128995.7,286047000.4,N
1566129015.6,286047002.4,N
1566129035.4,286047004.4,N
1566129055.2,286047005.7,N
1566129075.1,286047006.2,N
1566129076.0,286047006.2,N
1566129095.8,286047012.1,Y
1566129115.6,286047008.3,P
1566129135.5,286047006.4,N
1566129155.3,286047004.9,N
1566129175.2,286047005.4,N
1566129195.9,286047005.6,N
1566129215.7,286047005.8,N
1566129235.6,286047003.0,N
1566129255.4,286047003.5,N
1566129275.3,286047004.3,N
1566129295.1,286047003.5,N
1566129296.0,286047003.5,N
1566129315.8,286047001.4,N
1566129335.7,286047002.7,N
1566129355.5,286047004.3,N
1566129375.3,286047001.5,N
1566129395.2,286047003.9,N
1566129415.0,286047003.6,N
1566129415.9,286047003.6,N
1566129435.8,286047003.2,N
1566129455.6,286047006.0,Y
1566129475.4,286047002.8,P
1566129495.3,286047002.7,P
1566129515.1,286046999.9,N
1566129535.9,286047000.5,N
1566129555.7,286047000.9,N
1566129575.5,286047000.8,N
1566129595.4,286047000.7,N
